Sugarloaf, CA

11:05 AM PST on February 06, 2016 (GMT -0800)
Big Bear City

Weather History for KL35 - November, 2013

Change the Weather History Date:

Saturday, November 16, 2013

  Actual Average (KPSP) Record (KPSP)
Temperature  
Mean Temperature 34 °F 64 °F  
Max Temperature 48 °F 77 °F 92 °F (1995)
Min Temperature 19 °F 52 °F 31 °F (1964)
Degree Days  
Heating Degree Days 32 3  
Month to date heating degree days 25  
Since 1 July heating degree days 29  
Cooling Degree Days 0 2  
Month to date cooling degree days 62  
Year to date cooling degree days 4124  
Moisture  
Dew Point 27 °F    
Average Humidity 78    
Maximum Humidity 100    
Minimum Humidity 43    
Precipitation  
Precipitation 0.00 in 0.02 in 0.90 in (1952)
Month to date precipitation 0.21  
Year to date precipitation 4.54  
Sea Level Pressure  
Sea Level Pressure 29.86 in    
Wind  
Wind Speed 3 mph (WSW)    
Max Wind Speed 13 mph    
Max Gust Speed 17 mph    
Visibility 9 miles    
Events      
T = Trace of Precipitation, MM = Missing Value Source: NWS Daily Summary

Daily Weather History Graph

Daily Weather History Graph

Search for Another Location

Airport or City:

Trip Planner

Search our weather history database for the weather conditions in past years. The results will help you decide how hot, cold, wet, or windy it might be!

Date:

Astronomy

Nov. 16, 2013 Rise Set
Actual Time 6:21 AM PST 4:42 PM PST
Civil Twilight 5:54 AM PST 5:09 PM PST
Nautical Twilight 5:24 AM PST 5:39 PM PST
Astronomical Twilight 4:54 AM PST 6:09 PM PST
Moon 4:19 PM PST (11/16) 5:24 AM PST (11/16)
Length of Visible Light 11h 14m
Length of Day
10h 20m
Waxing Gibbous, 99% of the Moon is Illuminated
Nov 16
Waxing Gibbous
Nov 17
Full
Nov 25
Last Quarter
Dec 2
New
Dec 9
First Quarter

Hourly Weather History & Observations

Time (PST) Temp. Windchill Dew Point Humidity Pressure Visibility Wind Dir Wind Speed Gust Speed Precip Events Conditions
12:15 AM 21.2 °F - 15.8 °F 80% 29.81 in 10.0 mi Calm Calm - N/A   Clear
12:35 AM 21.2 °F - 14.0 °F 74% 29.81 in 10.0 mi Calm Calm - N/A   Clear
12:55 AM 21.2 °F - 14.0 °F 74% 29.81 in 10.0 mi Calm Calm - N/A   Clear
1:15 AM 19.4 °F - 14.0 °F 80% 29.81 in 10.0 mi Calm Calm - N/A   Clear
1:35 AM 19.4 °F - 14.0 °F 80% 29.81 in 10.0 mi Calm Calm - N/A   Clear
1:55 AM 19.4 °F - 14.0 °F 80% 29.81 in 10.0 mi Calm Calm - N/A   Clear
2:15 AM 19.4 °F - 14.0 °F 80% 29.81 in 10.0 mi Calm Calm - N/A   Clear
2:35 AM 19.4 °F - 15.8 °F 86% 29.81 in 10.0 mi Calm Calm - N/A   Clear
2:55 AM 21.2 °F - 14.0 °F 74% 29.81 in 10.0 mi Calm Calm - N/A   Clear
3:15 AM 21.2 °F - 14.0 °F 74% 29.81 in 10.0 mi Calm Calm - N/A   Clear
3:35 AM 21.2 °F - 17.6 °F 86% 29.81 in 10.0 mi Calm Calm - N/A   Clear
3:55 AM 21.2 °F - 17.6 °F 86% 29.81 in 10.0 mi Calm Calm - N/A   Clear
4:15 AM 21.2 °F - 17.6 °F 86% 29.80 in 10.0 mi Calm Calm - N/A   Clear
4:35 AM 21.2 °F 14.9 °F 19.4 °F 93% 29.80 in 10.0 mi SW 4.6 mph - N/A   Clear
4:55 AM 28.4 °F 24.6 °F 26.6 °F 93% 29.80 in 10.0 mi SW 3.5 mph - N/A   Clear
5:15 AM 28.4 °F 23.3 °F 26.6 °F 93% 29.80 in 10.0 mi SW 4.6 mph - N/A   Clear
5:35 AM 30.2 °F 26.7 °F 28.4 °F 93% 29.80 in 7.0 mi SW 3.5 mph - N/A   Scattered Clouds
5:55 AM 30.2 °F 21.9 °F 30.2 °F 100% 29.82 in 7.0 mi West 9.2 mph - N/A   Scattered Clouds
6:15 AM 32.0 °F 24.8 °F 30.2 °F 93% 29.81 in 7.0 mi West 8.1 mph - N/A   Clear
6:35 AM 30.2 °F 26.7 °F 28.4 °F 93% 29.82 in 7.0 mi SW 3.5 mph - N/A   Clear
6:55 AM 30.2 °F - 28.4 °F 93% 29.83 in 7.0 mi Calm Calm - N/A   Clear
7:15 AM 32.0 °F 23.6 °F 30.2 °F 93% 29.85 in 10.0 mi WSW 10.4 mph - N/A   Clear
7:35 AM 33.8 °F 27.0 °F 32.0 °F 93% 29.85 in 10.0 mi WSW 8.1 mph - N/A   Clear
7:55 AM 33.8 °F 24.8 °F 30.2 °F 87% 29.86 in 10.0 mi West 12.7 mph 17.3 mph N/A   Clear
8:15 AM 35.6 °F 27.5 °F 30.2 °F 81% 29.85 in 10.0 mi West 11.5 mph - N/A   Clear
8:35 AM 37.4 °F 32.8 °F 30.2 °F 75% 29.86 in 10.0 mi WSW 5.8 mph - N/A   Clear
8:55 AM 39.2 °F 34.2 °F 30.2 °F 70% 29.87 in 10.0 mi West 6.9 mph - N/A   Clear
9:15 AM 41.0 °F 35.8 °F 28.4 °F 61% 29.86 in 10.0 mi WSW 8.1 mph - N/A   Clear
9:35 AM 42.8 °F 38.0 °F 28.4 °F 57% 29.87 in 10.0 mi West 8.1 mph - N/A   Clear
9:55 AM 42.8 °F 37.5 °F 28.4 °F 57% 29.87 in 10.0 mi WSW 9.2 mph 16.1 mph N/A   Clear
10:15 AM 44.6 °F 40.2 °F 30.2 °F 57% 29.88 in 10.0 mi WSW 8.1 mph - N/A   Clear
10:35 AM 44.6 °F 40.2 °F 30.2 °F 57% 29.88 in 10.0 mi WSW 8.1 mph - N/A   Clear
10:55 AM 46.4 °F 41.9 °F 30.2 °F 53% 29.88 in 10.0 mi West 9.2 mph - N/A   Clear
11:15 AM 46.4 °F 42.9 °F 30.2 °F 53% 29.87 in 10.0 mi West 6.9 mph - N/A   Clear
11:35 AM 48.2 °F - 32.0 °F 54% 29.86 in 10.0 mi West 9.2 mph - N/A   Clear
11:55 AM 48.2 °F - 30.2 °F 50% 29.85 in 10.0 mi WSW 10.4 mph - N/A   Clear
12:15 PM 48.2 °F - 32.0 °F 54% 29.84 in 10.0 mi West 12.7 mph - N/A   Clear
12:35 PM 48.2 °F - 32.0 °F 54% 29.84 in 10.0 mi West 12.7 mph - N/A   Clear
12:55 PM 46.4 °F 41.5 °F 32.0 °F 57% 29.83 in 10.0 mi WSW 10.4 mph 17.3 mph N/A   Clear
1:15 PM 46.4 °F 41.5 °F 32.0 °F 57% 29.84 in 10.0 mi WSW 10.4 mph - N/A   Clear
1:35 PM 48.2 °F - 30.2 °F 50% 29.84 in 10.0 mi WSW 9.2 mph - N/A   Clear
1:55 PM 46.4 °F 42.9 °F 28.4 °F 50% 29.84 in 10.0 mi West 6.9 mph - N/A   Clear
2:15 PM 48.2 °F - 26.6 °F 43% 29.84 in 10.0 mi WSW 8.1 mph - N/A   Clear
2:35 PM 48.2 °F - 28.4 °F 46% 29.85 in 10.0 mi WSW 5.8 mph - N/A   Clear
2:55 PM 48.2 °F - 28.4 °F 46% 29.86 in 10.0 mi WSW 5.8 mph - N/A   Clear
3:15 PM 46.4 °F 41.9 °F 26.6 °F 46% 29.86 in 10.0 mi West 9.2 mph - N/A   Clear
3:35 PM 41.0 °F 34.7 °F 33.8 °F 76% 29.86 in 10.0 mi WSW 10.4 mph - N/A   Clear
3:55 PM 41.0 °F 36.4 °F 32.0 °F 70% 29.87 in 10.0 mi WSW 6.9 mph - N/A   Clear
4:15 PM 39.2 °F 33.6 °F 32.0 °F 75% 29.87 in 10.0 mi SW 8.1 mph - N/A   Clear
4:35 PM 39.2 °F - 32.0 °F 75% 29.87 in 10.0 mi Calm Calm - N/A   Clear
4:55 PM 37.4 °F 32.8 °F 32.0 °F 81% 29.87 in 10.0 mi West 5.8 mph - N/A   Clear
5:15 PM 35.6 °F 30.7 °F 32.0 °F 87% 29.88 in 10.0 mi WSW 5.8 mph - N/A   Clear
5:35 PM 35.6 °F 32.8 °F 33.8 °F 93% 29.88 in 10.0 mi WSW 3.5 mph - N/A   Clear
5:55 PM 35.6 °F 31.7 °F 32.0 °F 87% 29.89 in 10.0 mi SW 4.6 mph - N/A   Clear
6:15 PM 33.8 °F - 32.0 °F 93% 29.90 in 10.0 mi Calm Calm - N/A   Clear
6:35 PM 32.0 °F 28.7 °F 30.2 °F 93% 29.90 in 10.0 mi SW 3.5 mph - N/A   Clear
6:55 PM 32.0 °F 28.7 °F 30.2 °F 93% 29.91 in 10.0 mi SSW 3.5 mph - N/A   Clear
7:15 PM 32.0 °F - 32.0 °F 100% 29.92 in 10.0 mi Calm Calm - N/A   Clear
7:35 PM 32.0 °F - 30.2 °F 93% 29.92 in 10.0 mi Calm Calm - N/A   Clear
7:55 PM 32.0 °F - 32.0 °F 100% 29.92 in 7.0 mi Calm Calm - N/A   Mostly Cloudy
8:15 PM 32.0 °F - 32.0 °F 100% 29.94 in 5.0 mi Calm Calm - N/A   Overcast
8:35 PM 32.0 °F 27.5 °F 32.0 °F 100% 29.94 in 5.0 mi WSW 4.6 mph - N/A   Overcast
8:55 PM 32.0 °F 28.7 °F 30.2 °F 93% 29.94 in 7.0 mi WSW 3.5 mph - N/A   Scattered Clouds
9:15 PM 32.0 °F - 30.2 °F 93% 29.94 in 7.0 mi Calm Calm - N/A   Clear
9:35 PM 32.0 °F 28.7 °F 30.2 °F 93% 29.94 in 10.0 mi SW 3.5 mph - N/A   Scattered Clouds
9:55 PM 32.0 °F - 30.2 °F 93% 29.95 in 7.0 mi Calm Calm - N/A   Clear
10:15 PM 30.2 °F - 28.4 °F 93% 29.94 in 10.0 mi Calm Calm - N/A   Clear
10:35 PM 30.2 °F - 28.4 °F 93% 29.95 in 10.0 mi Calm Calm - N/A   Clear
10:55 PM 30.2 °F - 26.6 °F 86% 29.95 in 10.0 mi Calm Calm - N/A   Clear
11:15 PM 30.2 °F - 26.6 °F 86% 29.96 in 10.0 mi Calm Calm - N/A   Clear
11:35 PM 30.2 °F - 26.6 °F 86% 29.97 in 10.0 mi Calm Calm - N/A   Clear
11:55 PM 28.4 °F 24.6 °F 26.6 °F 93% 29.97 in 7.0 mi West 3.5 mph - N/A   Clear